This demonstration page uses our WeatherBlox Daily Observations layout. Learn more.

Left ArrowRight Arrow

38.20091, -84.87328

Hourly Observations for September 15, 2016

Temp ( °F °C ) Dew Point ( °F °C ) Humidity (%) Winds ( mph kmh ) Pressure ( in mb ) Visibility ( mi km ) Precip ( " mm )
12:53 am 00:53 Cloudy 74 23.3 66 18.9 76 76 NNE 6 9 30.14 1021 10 16 0.00 0.00
1:53 am 01:53 Mostly Clear 72 22.2 66 18.9 82 82 NE 6 9 30.14 1021 10 16 0.00 0.00
2:53 am 02:53 Clear 71 21.7 65 18.3 81 81 NE 5 7 30.14 1021 10 16 0.00 0.00
3:53 am 03:53 Clear 69 20.6 65 18.3 87 87 NE 6 9 30.13 1020 10 16 0.00 0.00
4:30 am 04:30 Partly Cloudy 69 20.6 65 18.3 87 87 NE 6 9 30.15 1021 10 16 0.00 0.00
4:42 am 04:42 Mostly Cloudy 69 20.6 65 18.3 87 87 NE 6 9 30.15 1021 10 16 0.00 0.00
4:53 am 04:53 Cloudy 69 20.6 65 18.3 87 87 VRB 6 9 30.13 1020 10 16 0.00 0.00
5:16 am 05:16 Cloudy 69 20.6 65 18.3 87 87 ENE 6 9 30.15 1021 8 13 0.00 0.00
5:53 am 05:53 Cloudy 69 20.6 65 18.3 87 87 NE 7 11 30.13 1020 7 11 0.00 0.00
6:53 am 06:53 Cloudy with Mist and Fog 70 21.1 66 18.9 87 87 NE 5 7 30.15 1021 5 8 0.00 0.00
7:50 am 07:50 Cloudy with Mist and Fog 70 21 66 19 88 88 NE 5 7 30.18 1022 3 5 0.00 0.00
7:53 am 07:53 Cloudy with Mist and Fog 69 20.6 66 18.9 90 90 ENE 5 7 30.16 1021 3 5 0.00 0.00
8:44 am 08:44 Cloudy with Mist and Fog 70 21.1 66 18.9 87 87 ENE 3 6 30.18 1022 4 6 0.00 0.00
8:53 am 08:53 Cloudy with Mist and Fog 70 21.1 66 18.9 87 87 NNE 3 6 30.17 1022 4 6 0.00 0.00
9:25 am 09:25 Cloudy with Mist and Fog 70 21.1 66 18.9 87 87 NE 5 7 30.18 1022 4 6 0.00 0.00
9:53 am 09:53 Cloudy with Haze 71 21.7 66 18.9 84 84 VRB 5 7 30.16 1022 4 6 0.00 0.00
10:53 am 10:53 Cloudy 74 23.3 66 18.9 76 76 NNE 5 7 30.18 1022 8 13 0.00 0.00
11:00 am 11:00 Mostly Cloudy 75 23.9 66 18.9 74 74 ENE 5 7 30.18 1022 8 13 0.00 0.00
11:53 am 11:53 Partly Cloudy 78 25.6 67 19.4 69 69 VRB 3 6 30.17 1022 10 16 0.00 0.00
12:53 pm 12:53 Sunny 79 26.1 66 18.9 65 65 VRB 6 9 30.16 1021 10 16 0.00 0.00
1:53 pm 13:53 Sunny 81 27.2 66 18.9 61 61 Calm 30.15 1021 10 16 0.00 0.00
2:53 pm 14:53 Sunny 84 28.9 65 18.3 53 53 NE 5 7 30.11 1020 10 16 0.00 0.00
3:53 pm 15:53 Sunny 86 30 65 18.3 49 49 NNW 5 7 30.08 1019 10 16 0.00 0.00
4:53 pm 16:53 Sunny 86 30 65 18.3 49 49 VRB 3 6 30.07 1018 10 16 0.00 0.00
5:53 pm 17:53 Sunny 85 29.4 64 17.8 50 50 N 9 15 30.07 1018 10 16 0.00 0.00
6:53 pm 18:53 Sunny 83 28.3 64 17.8 53 53 N 6 9 30.07 1018 10 16 0.00 0.00
7:53 pm 19:53 Clear 79 26.1 65 18.3 62 62 Calm 30.08 1019 10 16 0.00 0.00
8:53 pm 20:53 Clear 77 25 64 17.8 64 64 NNE 3 6 30.09 1019 10 16 0.00 0.00
9:53 pm 21:53 Clear 76 24.4 65 18.3 69 69 NNE 3 6 30.10 1019 10 16 0.00 0.00
10:53 pm 22:53 Clear 74 23.3 64 17.8 71 71 ENE 7 11 30.10 1019 10 16 0.00 0.00
11:53 pm 23:53 Clear 73 22.8 64 17.8 74 74 NE 5 7 30.09 1019 10 16 0.00 0.00

Powered by AerisWeather